Location: Newark
(48.1500°N, 13.1167°E)
Time: 00:11:48
(UTC+00:00)

ISS - Pass Details

Date: 22 September 2021
Orbit: 417 x 423 km, 51.6° (Epoch: 18 October)

Event Time Altitude Azimuth Distance (km) Brightness Sun altitude
Rises 18:51:54 0° 269° (W) 2,362 1.3 -18.2°
Reaches altitude 10° 18:54:02 10° 275° (W) 1,500 0.2 -18.6°
Maximum altitude 18:57:19 48° 351° (N) 555 -3.0 -19.1°
Enters shadow 18:58:06 39° 35° (NE) 649 -3.0 -19.2°
